Regional Weather Roundup
Issued by NWS

Home | Current Version | Previous Version | Text Only | Print | Product List | Glossary On
Versions: 1 2 3 4 5 6 7 8 9 10 11 12 13 14 15 16 17 18 19 20 21 22 23 24 25 26 27 28 29 30 31 32 33 34 35 36 37 38 39 40 41 42 43 44 45 46 47 48 49 50
000
ASUS45 KABQ 230610
RWRNM
WEATHER ROUNDUP FOR NEW MEXICO
NATIONAL WEATHER SERVICE ALBUQUERQUE NM
1200 AM MDT WED JUL 23 2014

NOTE: "FAIR" MEANS FEW OR NO CLOUDS BELOW 12,000 FEET AGL WITH NO
       SIGNIFICANT WEATHER OR OBSTRUCTIONS TO VISION.

      THIS PRODUCT IS RELEASED AS TWO VERSIONS.  ONE VERSION NEAR
      THE TOP OF THE HOUR CONTAINING PRELIMINARY DATA FROM ALBUQUERQUE
      AND OTHER STATIONS.  A FINAL VERSION WITH ADDITIONAL DATA IS
      ISSUED ABOUT 10 MINUTES AFTER THE HOUR.

NMZ501-503-504-510>518-230700-
NORTHWEST PLATEAU/NORTHCENTRAL MOUNTAINS

CITY           SKY/WX    TMP DP  RH WIND       PRES   REMARKS
FARMINGTON     CLEAR     82  47  29 SE17      30.34R
6HR MIN TEMP:  82; 6HR MAX TEMP:  95; 6HR PCP: TRACE;

LOS ALAMOS     CLEAR     68  44  40 SW9       30.51F
SANTA FE       PTCLDY    64  51  62 N3        30.42F
6HR MIN TEMP:  64; 6HR MAX TEMP:  87; 6HR PCP:  0.06;

TAOS           CLEAR     64  50  59 CALM      30.51R
ANGEL FIRE     FAIR      51  47  88 CALM      30.62S

$$
NMZ402-403-502-505>509-230700-
WESTCENTRAL MOUNTAINS/SOUTHWEST MOUNTAINS

CITY           SKY/WX    TMP DP  RH WIND       PRES   REMARKS
GALLUP         PTCLDY    71  46  40 VRB5      30.41R
6HR MIN TEMP:  69; 6HR MAX TEMP:  90;

GRANTS         MOCLDY    69  51  52 S7        30.44F
SILVER CITY    LGT RAIN  68  59  73 N7        30.38S

$$
NMZ407-409-411-412-230700-
SOUTHERN DESERTS

CITY           SKY/WX    TMP DP  RH WIND       PRES   REMARKS
LORDSBURG      MOCLDY    75  55  50 SE13G20   30.30R
DEMING         CLOUDY    72  67  84 NE6       30.30R
6HR MIN TEMP:  70; 6HR MAX TEMP: 101; 6HR PCP:  0.68;

LAS CRUCES     CLOUDY    74  61  63 NW5       30.28S
HOLLOMAN AFB   MOCLDY    80  55  41 S7        30.22S
ALAMOGORDO     MOCLDY    75  59  57 S7        30.24S
T OR C         CLOUDY    77  57  50 W8        30.30S
6HR MIN TEMP:  77; 6HR MAX TEMP:  88;


$$
NMZ519>523-230700-
CENTRAL VALLEYS/CENTRAL HIGHLANDS

CITY           SKY/WX    TMP DP  RH WIND       PRES   REMARKS
ALBUQUERQUE    MOCLDY    77  52  41 W7        30.33F
6HR MIN TEMP:  72; 6HR MAX TEMP:  90; 6HR PCP:  0.10;

DOUBLE EAGLE   PTCLDY    66  56  71 NW6       30.37F
MORIARTY ARPT  FAIR      69  50  50 NE9       30.41R
CLINES CORNERS CLOUDY    65  51  60 E7        30.46S
6HR MIN TEMP:  61; 6HR MAX TEMP:  72; 6HR PCP:  0.02;

BELEN          FAIR      76  49  38 S5        30.32F
6HR MIN TEMP:  76; 6HR MAX TEMP:  88;

SOCORRO        FAIR      78  49  35 NW3       30.30S
6HR MIN TEMP:  77; 6HR MAX TEMP:  90;


$$
NMZ524>526-539-540-230700-
SOUTHCENTRAL MOUNTAINS

CITY           SKY/WX    TMP DP  RH WIND       PRES   REMARKS
RUIDOSO        LGT RAIN  63  57  82 MISG      30.50R

$$
NMZ527>531-230700-
NORTHEAST HIGHLANDS/NORTHEAST PLAINS

CITY           SKY/WX    TMP DP  RH WIND       PRES   REMARKS
LAS VEGAS      PTCLDY    60  55  83 N7        30.48F
6HR MIN TEMP:  59; 6HR MAX TEMP:  70; 6HR PCP:  0.08;

RATON          CLEAR     68  54  60 N5        30.43R
6HR MIN TEMP:  67; 6HR MAX TEMP:  90;

CLAYTON        CLEAR     73  60  63 SW9       30.34R
6HR MIN TEMP:  73; 6HR MAX TEMP:  90;


$$
NMZ532>537-230700-
EASTCENTRAL PLAINS

CITY           SKY/WX    TMP DP  RH WIND       PRES   REMARKS
TUCUMCARI      MOCLDY    74  62  66 W6        30.25R
6HR MIN TEMP:  74; 6HR MAX TEMP:  94; 6HR PCP:  0.01;

CANNON AFB     MOCLDY    72  64  77 E3        30.29R
6HR MIN TEMP:  72; 6HR MAX TEMP:  89;

CLOVIS AIRPORT NOT AVBL

$$
NMZ028-029-538-230700-
SOUTHEAST PLAINS

CITY           SKY/WX    TMP DP  RH WIND       PRES   REMARKS
ROSWELL        CLOUDY    85  58  39 CALM      30.21F
6HR MIN TEMP:  84; 6HR MAX TEMP:  93;

ARTESIA        MOCLDY    84  57  39 SE5       30.20S
CARLSBAD       MOCLDY    87  54  32 E8        30.17R
6HR MIN TEMP:  87; 6HR MAX TEMP:  98;

HOBBS          MOCLDY    79  59  50 E8        30.23S


$$



USA.gov is the U.S. government's official web portal to all federal, state and local government web resources and services.